Regional Weather Roundup
Issued by NWS

Home | Current Version | Previous Version | Text Only | Print | Product List | Glossary On
Versions: 1 2 3 4 5 6 7 8 9 10 11 12 13 14 15 16 17 18 19 20 21 22 23 24 25 26 27
000
ASUS42 KKEY 272110
RWRKEY

FLORIDA REGIONAL WEATHER ROUNDUP FOR THE FLORIDA KEYS
NATIONAL WEATHER SERVICE KEY WEST FLORIDA
400 PM EST MON FEB 27 2017

...SOUTH FLORIDA AND THE KEYS...

CITY           SKY/WX    TMP DP  RH WIND       PRES   REMARKS
FORT MYERS     SUNNY     86  66  51 SW9       30.14S
SW REGIONAL AP PTSUNNY   84  64  50 W8        30.15S
NAPLES         MOSUNNY   82  68  62 SW15      30.14R
MIAMI          PTSUNNY   80  69  69 E16       30.17S
WEST KENDALL   PTSUNNY   80  68  66 E15       30.17S
HOMESTEAD      MOSUNNY   79  74  85 E14       30.16R
MARATHON       SUNNY     83  74  74 E10       30.13F
BOCA CHICA NAS MOSUNNY   81  72  74 E16       30.13F
KEY WEST INTL  SUNNY     82  73  74 E13       30.13F

...INTERNATIONAL WEATHER...

CITY           SKY/WX    TMP DP  RH WIND       PRES   REMARKS
NASSAU BAHAMAS MOSUNNY   82  72  69 E12       30.21S
CANCUN MEXICO  PTSUNNY   77  73  88 SE10      30.04S
COZUMEL MEXICO PTSUNNY   84  72  65 SE13      30.01F

ADJACENT COASTAL WATERS...

STATION/POSITION TIME  SKY/WX   TEMP    WIND        PRES    WAVE
                                AIR SEA DIR/SP/G            HT/PER
                 (UTC)          (F)     (DEG/KT/KT) (MB)    (FT/S)
PULASKI SHOAL LI 2100            76     110/ 10/ 11 1020.3R
SAND KEY         2050            78     130/ 16/ 18 1020.6F
LONG KEY         2000            77 78  100/ 14/ 16 1021.2F
MOLASSES REEF    2100            77 76  120/ 16/ 18 1021.0F
FOWEY ROCKS      2100            77 77  100/ 15/ 16 1022.1R
Buoy 42097       2100                                 N/A     3/ 5

$$




USA.gov is the U.S. government's official web portal to all federal, state and local government web resources and services.